Preview of NWS' New Version of Forecast
This preview is not operational and should not be used for support decisions.

Regional Weather Roundup (RWR)

Issued by Gray - Portland, ME (GYX)

                            
000
ASUS41 KGYX 210610
RWRGYX
WEATHER ROUNDUP FOR MAINE AND NEW HAMPSHIRE
NATIONAL WEATHER SERVICE GRAY ME
200 AM EDT SUN APR 21 2019

MEZ002-005-006-010-012-015-018-020-021-024-026-027-029-210700-
MAINE
  
CITY           SKY/WX    TMP DP  RH WIND       PRES   REMARKS
PORTLAND       CLOUDY    53  52  96 S8        29.99R FOG              
6HR MIN TEMP:  52; 6HR MAX TEMP:  57; 6HR PCP:  0.03;                

SANFORD        LGT RAIN  61  57  88 S7        29.96S                  
BAR HARBOR     CLOUDY    52  52 100 S16       30.05F                  
WISCASSET      FOG       51  50  96 CALM      30.01F VSB 3/4          
6HR MIN TEMP:  50; 6HR MAX TEMP:  54; 6HR PCP:  0.04;                

ROCKLAND       CLOUDY    48  48 100 W7        30.02F FOG              
FRYEBURG       LGT RAIN  58  57  97 E3        29.94F FOG              
6HR MIN TEMP:  58; 6HR MAX TEMP:  60; 6HR PCP:  0.02;                

LEWISTONAUBURN LGT RAIN  55  55 100 SE7       29.97F VSB 3/4          
AUGUSTA        FOG       54  54 100 S8G16     29.98F VSB 1/4          
6HR MIN TEMP:  54; 6HR MAX TEMP:  57; 6HR PCP:  0.02;                

WATERVILLE     FOG       55  55 100 VRB6      29.96S VSB 1/4          
BANGOR         FOG       53  52  96 S16G23    29.99F VSB 1/2          
6HR MIN TEMP:  50; 6HR MAX TEMP:  55; 6HR PCP: TRACE;                

GREENVILLE       N/A     44  43  96 SE5       29.94F                  
6HR MIN TEMP:  41; 6HR MAX TEMP:  45; 6HR PCP:  0.03;                

MILLINOCKET    FOG       41  39  93 CALM      30.02F VSB 3/4          
6HR MIN TEMP:  40; 6HR MAX TEMP:  42; 6HR PCP:  0.05;                

HOULTON        CLOUDY    39  38  96 VRB6      30.01F FOG              
6HR MIN TEMP:  39; 6HR MAX TEMP:  40; 6HR PCP:  0.01;                

PRESQUE ISLE   CLOUDY    40  40 100 S9        30.04F                  
6HR MIN TEMP:  39; 6HR MAX TEMP:  40; 6HR PCP:  0.13;                

FRENCHVILLE    FOG       39  36  89 E9        30.01F VSB 1/4          
6HR MIN TEMP:  39; 6HR MAX TEMP:  40; 6HR PCP: TRACE;                

CARIBOU        FOG       38  37  97 CALM      30.04F VSB 1/2          
6HR MIN TEMP:  38; 6HR MAX TEMP:  41; 6HR PCP:  0.10;                

$$

NHZ002-005-008-009-011-012-014-210700-
NEW HAMPSHIRE
  
CITY           SKY/WX    TMP DP  RH WIND       PRES   REMARKS
PORTSMOUTH     CLOUDY    57  57 100 SE14      29.93F                  
ROCHESTER      LGT RAIN  58  58 100 SE8G18    29.94F FOG              
6HR MIN TEMP:  58; 6HR MAX TEMP:  63; 6HR PCP:  0.01;                

NASHUA         RAIN      60  60 100 VRB3      29.95R FOG              
MANCHESTER     HVY RAIN  60  59  96 S6        29.93S FOG              
6HR MIN TEMP:  60; 6HR MAX TEMP:  66; 6HR PCP:  0.03;                

CONCORD        CLOUDY    59  57  93 SE8       29.93S                  
6HR MIN TEMP:  60; 6HR MAX TEMP:  66;                                

LACONIA        CLOUDY    63  57  81 S8        29.93S                  
PLYMOUTH       RAIN      61  56  85 CALM      29.92R                  
BERLIN         CLOUDY    62  57  83 SE9       29.89F                  
6HR MIN TEMP:  61; 6HR MAX TEMP:  65; 6HR PCP: TRACE;                

WHITEFIELD     FAIR      65  54  67 SE16G24   29.87F                  
6HR MIN TEMP:  62; 6HR MAX TEMP:  70; 6HR PCP: TRACE;                

JAFFREY        LGT RAIN  57  53  86 S9        29.94S FOG              
6HR MIN TEMP:  57; 6HR MAX TEMP:  65; 6HR PCP:  0.05;                

KEENE          LGT RAIN  55  52  89 S3        29.93R                  
LEBANON        LGT RAIN  60  47  61 S18G32    29.91R                  
6HR MIN TEMP:  60; 6HR MAX TEMP:  70; 6HR PCP: TRACE;                

MT WASHINGTON  FOG       43  43 100 S40G55      N/A  VSB 0            
6HR MIN TEMP:  43; 6HR MAX TEMP:  47; 6HR PCP:  0.14;                

$$

VTZ005-007-008-210700-
VERMONT
  
CITY           SKY/WX    TMP DP  RH WIND       PRES   REMARKS
ST JOHNSBURY     N/A     64  56  75 MISG      29.84F                  
MONTPELIER     FAIR      60  52  74 S12G18    29.90R                  
BURLINGTON     FAIR      53  48  83 CALM      29.81R                  
$$

MAZ007-012-024-CTZ003-RIZ002-NYZ038-NYZ072-210700-
SOUTHERN NEW ENGLAND AND NY
  
CITY           SKY/WX    TMP DP  RH WIND       PRES   REMARKS
BOSTON         LGT RAIN  64  60  87 S16       29.93F                  
WORCESTER      CLOUDY    54  54 100 S5        29.95R                  
NANTUCKET      FOG       54  54 100 SE24      29.96F VSB 1/2          
PROVIDENCE     CLOUDY    58  56  93 SW6       29.97S                  
HARTFORD       CLOUDY    58  55  90 S6        29.91S                  
ALBANY         CLOUDY    59  47  64 S9        29.87R                  
NEW YORK CITY  MOCLDY    54  49  83 SE5       29.88R                  
$$

ANZ081-ANZ082-ANZ150-NHZ014-MEZ023>029-210700-
COASTAL MARINE OBSERVATIONS
  
STATION/POSITION TIME  TEMP    WIND        PRES    WAVE
                       AIR SEA DIR/SP/G            HT/PER
                 (UTC) (F)     (DEG/KT/KT) (MB)    (FT/S)
ISLE OF SHOALS   0500   51     170/ 22/ 23 1014.1F
JEFFREYS LEDGE   0538      42                N/A     6/10
$$

.............KEY..............
   WCI - WIND CHILL
   TC  - TEMPERATURE IN CELSIUS
   VSB - VISIBILITY IN MILES
   HX  - HEAT INDEX
   FAIR- INDICATES FEW OR NO CLOUDS BELOW 12,000 FT, WITH NO 
         SIGNIFICANT WEATHER AND/OR OBSTRUCTIONS TO VISIBILITY.